CAPE
59 573 642 476 158 43 82 41 50 261 489 472 700 933 718 967 1318 1527 1431 1666 1711 1667 1493 1326 1177 1106 1163 1117 970 941 1142 1097 1174 1288 1293 1163 1139 931 725 599 579 523 464
54 586 639 454 220 91 96 54 77 265 504 442 494 724 1087 902 1276 1459 1402 1623 1663 1483 1406 1323 1084 954 938 909 861 840 773 848 930 1057 1234 1259 1017 767 749 646 539 437 415
32 502 583 409 262 165 106 78 122 271 489 479 566 617 881 1128 1342 1480 1607 1600 1545 1396 1176 897 832 665 594 568 575 651 784 630 512 541 546 524 574 693 720 688 501 640 513
47 379 485 359 282 224 107 109 146 267 480 528 576 717 884 1200 1351 1432 1491 1539 1308 1053 916 862 499 311 259 424 591 695 862 834 840 446 272 258 551 745 654 633 714 724 501
46 303 337 328 270 251 124 138 134 251 439 465 495 625 862 1098 1221 1225 1403 1342 1084 912 839 841 438 166 199 325 450 549 709 751 677 397 141 250 400 648 653 774 517 534 466
15 172 228 283 283 257 126 150 124 175 336 386 456 535 708 1010 1163 1146 1189 1173 952 938 964 621 251 121 238 345 435 480 535 309 208 354 132 488 473 845 958 598 312 309 412
0 80 263 282 314 267 130 175 104 119 245 334 364 346 429 610 918 1075 1082 969 814 797 580 243 153 171 255 266 264 273 98 0 0 306 158 393 859 1073 683 403 246 245 280
0 60 297 389 319 254 128 169 85 77 177 230 181 220 231 213 342 676 862 832 718 587 311 56 54 94 78 172 194 113 8 0 0 364 300 406 908 911 491 194 55 56 125
0 7 269 447 319 191 125 176 68 38 126 160 89 114 47 7 50 236 450 640 500 374 145 65 39 87 78 67 62 43 0 0 0 416 334 219 683 746 438 118 6 11 37
0 0 21 288 305 215 204 194 81 25 68 88 51 26 0 0 37 238 388 443 331 183 105 69 95 69 26 47 80 12 0 0 0 192 430 220 535 596 406 100 6 0 2
12 0 0 20 129 182 189 216 112 39 43 43 22 10 0 0 43 278 360 318 209 75 46 76 50 22 72 125 63 0 0 0 0 427 359 214 364 534 380 196 107 52 38
74 2 0 0 4 24 184 205 118 72 67 10 4 7 0 0 19 172 260 288 136 31 12 26 23 33 85 53 0 0 0 0 0 337 417 250 439 760 577 380 160 67 62
106 31 9 0 0 1 32 101 86 69 44 0 0 0 0 0 12 78 140 222 82 12 1 12 17 19 39 2 0 0 0 0 347 317 482 211 589 907 1047 487 216 224 201
241 129 51 0 0 0 23 0 0 3 17 0 0 0 0 0 0 6 16 100 8 0 0 0 0 0 0 0 0 0 171 12 518 420 265 377 760 1246 1316 641 460 387 290
472 335 227 5 0 0 0 0 0 0 0 0 0 0 0 0 0 0 4 15 5 0 0 0 0 0 0 0 0 0 253 359 480 399 314 471 800 1190 1463 1068 915 649 486
773 513 357 114 0 0 0 0 0 0 0 0 0 0 0 0 0 0 0 7 4 0 0 0 0 0 0 0 0 13 365 353 316 348 315 436 653 1003 1539 1489 1373 1143 928
847 887 470 351 35 0 0 0 0 0 0 0 0 0 0 0 0 0 0 0 2 0 0 0 0 0 0 0 0 54 332 333 334 364 391 328 391 512 984 1395 1366 1260 1124
428 886 800 553 287 12 0 0 0 0 0 0 0 0 0 0 0 0 0 0 0 0 0 0 0 0 1 6 66 150 306 261 341 264 377 429 297 319 465 774 1054 1211 1101
0 221 830 830 619 286 13 4 12 0 0 0 0 0 0 0 0 0 0 5 1 3 18 0 0 0 13 75 131 215 280 308 347 298 230 528 539 453 412 428 531 760 922
0 127 520 1000 905 589 283 143 362 189 71 25 8 0 0 0 0 0 12 39 26 21 82 7 27 11 68 208 285 280 151 165 200 221 247 282 398 504 446 354 315 411 541
0 138 498 847 1030 923 619 412 528 447 296 253 124 137 45 15 6 0 28 234 113 104 88 83 89 179 254 219 222 181 42 16 40 27 33 67 63 60 153 238 250 195 239
0 66 403 698 1074 1226 1145 820 605 759 741 458 326 241 310 217 144 113 105 242 521 350 287 242 141 223 203 168 274 140 257 130 38 0 0 0 0 0 0 5 31 88 138
0 0 252 476 875 1268 1324 1238 941 643 506 711 449 459 394 549 398 298 262 354 543 675 539 316 177 210 209 112 139 255 123 200 39 0 0 0 0 0 0 0 0 0 0
0 0 35 377 685 1260 1253 1190 1185 1077 838 669 766 556 513 612 727 622 474 459 524 652 731 535 304 241 178 260 36 3 0 3 97 102 0 0 0 0 0 0 0 0 0
0 0 0 161 511 1011 1157 1155 1118 1127 1016 835 737 783 620 594 739 752 682 708 757 590 554 626 452 323 202 173 210 23 0 0 0 72 213 49 0 0 0 0 0 0 0
0 0 0 31 256 460 825 1046 1106 1113 1021 1039 955 915 726 765 747 657 724 708 705 725 648 579 448 330 243 231 110 47 50 62 31 17 76 22 16 1 0 0 0 0 0
CIN
-467 -352 -325 -327 -389 -415 -409 -420 -397 -295 -245 -230 -185 -145 -152 -106 -66 -45 -50 -29 -11 -10 -26 -43 -56 -50 -48 -42 -52 -55 -35 -36 -31 -21 -4 -0 -0 -2 -16 -28 -33 -35 -25
-502 -377 -339 -342 -380 -404 -415 -430 -392 -306 -237 -245 -219 -171 -122 -117 -74 -49 -45 -25 -7 -16 -28 -31 -52 -57 -59 -50 -44 -41 -43 -39 -36 -28 -13 -2 -4 -24 -19 -26 -38 -46 -42
-510 -416 -365 -349 -376 -381 -400 -408 -376 -301 -240 -237 -209 -189 -144 -106 -71 -44 -24 -21 -17 -22 -38 -61 -60 -79 -88 -84 -67 -50 -40 -57 -73 -62 -68 -82 -71 -36 -30 -30 -52 -27 -31
-544 -476 -416 -384 -370 -380 -402 -389 -365 -307 -243 -226 -213 -178 -145 -95 -72 -47 -36 -28 -39 -60 -60 -59 -84 -135 -162 -105 -76 -69 -53 -56 -41 -86 -130 -131 -85 -48 -56 -64 -43 -31 -67
-588 -516 -469 -405 -380 -368 -404 -385 -366 -326 -260 -238 -231 -205 -166 -119 -95 -89 -53 -51 -68 -77 -75 -68 -112 -185 -181 -144 -115 -91 -66 -60 -60 -119 -200 -156 -129 -80 -74 -57 -95 -87 -97
-669 -554 -502 -440 -396 -374 -395 -372 -367 -341 -294 -272 -224 -206 -184 -140 -110 -108 -99 -84 -88 -80 -73 -104 -154 -206 -175 -139 -122 -127 -123 -140 -168 -140 -225 -111 -120 -81 -60 -95 -149 -158 -122
-0 -613 -523 -463 -417 -380 -397 -370 -377 -371 -327 -291 -260 -251 -221 -190 -146 -107 -105 -118 -129 -117 -123 -160 -188 -184 -158 -161 -166 -172 -236 -0 -0 -154 -194 -145 -91 -73 -90 -115 -160 -168 -149
-0 -662 -533 -469 -440 -405 -406 -370 -392 -398 -356 -327 -322 -295 -273 -281 -250 -182 -136 -144 -167 -176 -184 -212 -223 -212 -227 -197 -177 -210 -238 -0 -0 -139 -160 -156 -77 -83 -131 -206 -275 -284 -233
-0 -701 -526 -458 -449 -448 -438 -381 -418 -421 -385 -352 -370 -336 -364 -457 -345 -276 -230 -188 -209 -237 -272 -259 -251 -219 -238 -234 -226 -239 -0 -0 -0 -143 -166 -210 -108 -94 -149 -249 -331 -323 -260
-0 -0 -682 -503 -461 -469 -440 -392 -428 -417 -411 -393 -404 -417 -0 -0 -357 -269 -248 -235 -244 -272 -302 -315 -291 -275 -302 -257 -217 -275 -0 -0 -0 -196 -159 -202 -138 -138 -175 -238 -303 -0 -198
-462 -0 -0 -697 -567 -508 -484 -442 -441 -442 -419 -401 -433 -471 -33 -0 -372 -266 -245 -267 -289 -342 -380 -343 -363 -393 -287 -219 -243 -0 -0 -0 -0 -148 -197 -203 -174 -141 -168 -208 -226 -237 -225
-574 -105 -0 -0 -749 -328 -514 -490 -487 -479 -438 -332 -189 -492 -0 -0 -429 -312 -270 -269 -317 -398 -450 -417 -439 -400 -302 -316 -0 -0 -0 -0 -0 -155 -169 -208 -166 -106 -125 -137 -190 -234 -216
-472 -690 -691 -0 -61 -149 -591 -553 -550 -540 -511 -0 -0 -0 -0 -0 -443 -360 -321 -302 -354 -443 -210 -451 -443 -428 -377 -193 -0 -0 -0 -0 -155 -148 -126 -166 -88 -55 -52 -107 -152 -147 -170
-426 -547 -685 -0 -0 -0 -539 -0 -0 -84 -560 -0 -0 -0 -0 -0 -0 -476 -415 -342 -420 -0 -0 -0 -0 -0 -0 -0 -0 -0 -211 -96 -140 -141 -161 -133 -83 -34 -22 -96 -124 -120 -137
-371 -498 -563 -558 -0 -0 -0 -0 -0 -0 -0 -0 -0 -0 -0 -0 -0 -0 -452 -415 -217 -0 -0 -0 -0 -0 -0 -0 -0 -0 -187 -154 -131 -136 -146 -104 -64 -38 -8 -38 -37 -66 -72
-324 -414 -557 -631 -0 -0 -0 -0 -0 -0 -0 -0 -0 -0 -0 -0 -0 -0 -0 -467 -436 -0 -0 -0 -0 -0 -0 -0 -0 -296 -141 -120 -149 -149 -146 -126 -107 -63 -5 -5 -6 -7 -15
-327 -309 -477 -522 -668 -0 -0 -0 -0 -0 -0 -0 -0 -0 -0 -0 -0 -0 -0 -0 -452 -0 -0 -0 -0 -0 -0 -0 -0 -282 -158 -158 -160 -171 -165 -164 -138 -96 -32 -5 -2 -0 -0
-392 -326 -416 -499 -574 -239 -0 -0 -0 -0 -0 -0 -0 -0 -0 -0 -0 -0 -0 -0 -0 -0 -0 -0 -0 -0 -103 -302 -284 -233 -190 -182 -147 -166 -145 -118 -125 -115 -85 -49 -20 -4 -1
-0 -446 -426 -470 -491 -526 -302 -228 -297 -0 -0 -0 -0 -0 -0 -0 -0 -0 -0 -276 -199 -447 -413 -0 -0 -0 -314 -269 -233 -177 -154 -138 -111 -111 -162 -74 -74 -82 -79 -67 -43 -24 -6
-0 -488 -409 -407 -439 -456 -517 -596 -485 -508 -565 -566 -445 -0 -0 -0 -0 -0 -397 -318 -301 -292 -235 -411 -333 -239 -250 -163 -159 -141 -207 -190 -151 -132 -122 -172 -126 -67 -72 -79 -81 -46 -22
-0 -463 -421 -393 -416 -418 -423 -443 -426 -445 -439 -444 -464 -413 -394 -343 -417 -522 -371 -206 -218 -235 -203 -191 -190 -164 -145 -154 -141 -170 -256 -300 -238 -251 -251 -222 -237 -288 -213 -148 -113 -109 -83
-0 -470 -412 -387 -418 -404 -390 -384 -368 -316 -322 -350 -376 -389 -336 -267 -214 -218 -276 -211 -99 -131 -144 -143 -148 -124 -95 -111 -61 -114 -73 -173 -236 -0 -0 -0 -0 -0 -0 -241 -290 -215 -156
-0 -0 -434 -410 -394 -394 -365 -307 -297 -261 -258 -181 -255 -245 -261 -202 -181 -150 -157 -143 -93 -52 -77 -123 -128 -86 -77 -135 -117 -42 -100 -87 -235 -0 -0 -0 -0 -0 -0 -0 -0 -0 -0
-0 -0 -489 -421 -412 -377 -360 -330 -280 -231 -213 -239 -166 -164 -153 -129 -101 -96 -114 -105 -88 -62 -51 -68 -96 -96 -91 -53 -162 -198 -0 -50 -129 -129 -0 -0 -0 -0 -0 -0 -0 -0 -0
-0 -0 -0 -473 -418 -342 -319 -294 -263 -227 -224 -211 -165 -116 -91 -79 -60 -60 -66 -57 -51 -64 -55 -45 -58 -72 -109 -85 -67 -195 -0 -0 -0 -60 -32 -124 -0 -0 -0 -0 -0 -0 -0
-0 -0 -0 -518 -404 -344 -292 -294 -260 -221 -235 -167 -123 -85 -85 -66 -65 -63 -60 -63 -62 -57 -51 -48 -60 -66 -83 -74 -109 -138 -112 -80 -104 -91 -40 -93 -182 -242 -0 -0 -0 -0 -0
Wind_Speed
24 26 26 26 27 27 28 28 27 27 28 28 27 26 26 27 25 25 27 26 24 23 22 21 21 21 22 23 23 24 24 22 21 21 23 26 27 27 26 27 27 28 26
26 26 26 26 26 27 27 27 27 27 27 28 27 26 25 26 26 27 28 28 27 25 22 21 22 22 23 22 24 27 26 26 25 24 22 23 24 26 26 27 28 26 25
25 26 26 26 26 26 27 27 26 26 27 27 27 27 26 26 27 27 28 29 28 25 23 23 21 22 22 21 19 19 24 25 26 26 26 26 26 25 26 27 27 22 26
25 26 26 26 26 26 26 27 26 25 26 27 27 27 27 26 26 27 28 29 29 28 27 24 20 20 20 21 22 26 28 27 28 28 27 27 27 26 26 26 26 25 25
24 25 25 26 26 25 26 26 26 25 25 26 26 26 27 27 26 27 28 28 29 30 29 28 23 21 21 22 24 26 26 24 23 26 26 25 25 26 25 25 25 24 24
24 24 25 25 25 25 24 25 25 25 25 24 25 26 25 25 26 27 27 27 28 28 28 29 28 25 23 23 23 24 21 8 18 23 24 24 24 25 24 23 23 21 21
24 23 24 25 25 24 24 23 24 24 24 24 24 24 24 24 25 26 26 26 27 27 28 28 28 27 25 24 23 22 8 8 10 22 23 23 23 23 22 21 21 20 20
24 22 23 25 24 24 23 23 22 23 23 23 23 23 23 24 24 25 25 26 26 26 26 27 27 26 26 25 21 17 9 9 10 21 21 21 21 22 21 20 19 19 18
22 21 21 23 24 24 23 22 21 21 22 22 22 22 21 22 23 24 24 25 25 25 25 25 25 25 24 23 20 17 12 11 12 20 20 20 19 20 20 19 18 18 17
20 20 20 20 21 22 21 22 21 20 20 21 21 21 21 21 21 22 23 24 24 24 24 24 24 23 22 20 19 16 16 16 17 18 19 19 18 18 18 18 17 16 16
18 20 19 19 20 21 20 21 20 20 19 19 19 19 19 19 19 21 21 23 22 22 23 22 22 22 21 19 18 16 14 13 12 17 17 18 17 16 15 15 15 15 14
18 20 20 19 19 19 18 19 19 19 18 17 17 18 18 18 17 19 19 20 21 21 21 20 20 20 20 19 18 17 17 15 14 14 16 18 15 14 13 13 13 12 12
18 18 19 19 19 19 18 18 17 17 17 16 16 16 17 16 15 17 16 17 15 18 15 14 17 18 19 20 20 18 18 17 16 14 15 16 14 12 12 12 11 10 12
16 17 16 17 17 18 16 18 17 17 16 16 16 15 15 14 13 15 15 14 11 12 10 13 15 19 21 21 22 21 20 15 15 11 12 13 11 10 10 12 11 12 12
13 15 16 14 16 17 15 16 18 17 16 16 15 14 13 14 13 13 13 11 11 9 9 13 14 17 23 24 23 19 20 9 10 9 9 11 10 9 8 8 8 7 7
13 14 15 15 15 16 15 15 16 16 15 14 14 14 12 11 10 11 12 10 10 8 9 12 13 14 23 20 21 13 12 5 9 6 5 6 8 7 5 4 5 5 5
14 15 16 18 17 17 15 14 14 14 14 14 13 14 14 10 9 9 9 9 9 7 7 5 7 7 24 30 28 7 1 2 4 6 4 2 2 2 2 1 2 2 3
13 15 16 16 19 18 18 14 12 12 13 13 12 12 14 13 9 7 8 9 9 9 8 8 7 7 18 13 20 16 4 8 11 9 6 6 7 6 4 3 2 2 2
10 16 16 16 19 21 20 15 13 11 11 11 11 11 13 14 11 10 9 9 10 11 12 11 11 10 11 15 17 5 10 8 9 13 13 8 7 8 11 10 7 7 6
6 12 17 17 19 21 19 17 12 10 9 9 10 10 11 13 14 13 13 12 11 12 12 14 15 15 22 19 18 20 23 20 14 12 11 12 13 13 15 16 17 13 11
6 10 14 15 17 16 17 17 15 16 12 9 9 11 11 13 14 15 13 14 13 13 13 12 14 13 15 16 19 24 25 24 20 18 15 14 17 17 18 19 19 18 18
9 13 12 13 13 16 15 16 14 13 10 11 9 10 12 14 15 15 15 15 15 14 16 15 15 16 17 15 20 22 25 25 23 18 17 17 17 19 18 18 18 19 19
12 12 14 12 12 13 12 8 4 5 5 8 10 11 12 13 16 17 17 16 16 17 17 18 17 16 16 17 17 20 21 23 21 20 21 20 19 21 20 21 22 21 21
13 12 13 12 11 10 9 8 10 9 11 13 11 11 12 13 14 16 17 18 17 18 20 20 20 20 20 18 20 21 22 20 20 24 22 22 21 21 23 24 24 25 24
15 11 11 11 10 9 10 9 10 10 9 6 8 10 11 12 14 16 17 18 19 18 22 22 22 20 20 20 19 20 23 23 24 26 29 26 25 23 23 24 25 27 27
12 9 8 8 8 8 8 9 10 10 8 7 7 8 10 11 12 14 16 18 18 19 20 21 20 20 21 21 21 21 21 22 23 24 28 31 30 27 24 24 24 25 26
Wind_Direction
124 126 124 117 115 111 105 97 88 85 84 81 78 74 78 80 73 71 74 72 68 67 63 61 63 63 64 65 65 66 63 59 53 52 54 61 61 59 58 58 59 60 57
118 126 125 119 118 115 110 103 95 89 88 85 82 78 77 80 80 80 80 81 77 73 66 64 66 67 67 65 66 71 68 64 60 56 53 56 55 59 59 62 66 62 58
116 124 125 122 120 117 116 110 100 93 93 91 87 84 81 83 84 84 86 87 84 75 70 69 66 70 69 67 63 60 64 63 62 64 65 66 64 62 65 66 67 53 62
115 121 124 125 122 120 119 116 106 100 98 96 94 90 88 87 86 87 89 92 94 89 85 74 67 67 69 67 67 74 79 73 77 86 85 77 76 74 74 73 70 66 67
112 118 123 125 123 121 121 119 114 108 102 103 102 98 96 95 91 93 96 98 104 103 99 91 77 72 71 72 75 79 91 130 123 87 98 81 78 83 81 79 77 76 72
113 116 122 123 124 122 122 121 119 114 112 108 106 104 100 98 100 102 101 104 108 106 107 110 100 88 81 79 79 81 63 226 141 108 105 93 81 87 89 82 80 69 64
114 116 120 123 124 124 124 123 122 121 119 115 111 111 109 105 108 110 107 105 107 110 113 117 120 109 101 92 86 85 308 233 213 111 108 105 85 87 83 79 76 70 67
115 115 118 124 125 126 126 126 126 126 125 122 119 116 113 115 115 114 114 116 113 110 112 121 126 127 123 122 152 172 250 222 254 107 108 113 99 91 89 88 86 79 69
111 111 116 124 127 127 127 129 130 130 129 128 126 123 119 119 120 119 119 121 121 120 118 118 130 140 142 146 163 172 208 195 172 111 113 113 105 97 92 87 85 78 75
113 118 120 124 127 127 128 131 133 134 133 133 131 129 125 123 122 126 123 125 125 128 127 125 133 147 157 168 177 182 167 149 131 113 127 124 114 110 105 93 86 79 77
120 129 130 129 131 133 131 133 134 137 135 136 136 133 129 128 128 131 132 133 131 129 134 132 131 143 161 174 183 196 209 207 201 111 122 127 119 108 106 99 85 74 75
139 141 140 137 136 137 134 133 133 135 135 137 140 139 137 137 133 135 135 138 137 138 138 136 136 143 157 178 190 206 213 225 209 147 117 131 121 111 102 80 79 74 76
151 146 148 147 144 142 142 138 134 135 137 138 143 146 146 142 138 141 138 141 133 139 129 127 141 148 161 176 189 202 225 249 233 133 124 131 132 121 109 98 109 73 113
154 157 153 151 152 152 143 150 145 143 142 143 146 149 152 151 151 152 150 147 139 141 131 140 152 167 181 184 196 210 227 183 194 93 117 131 135 125 119 141 131 134 142
155 161 164 160 161 159 153 154 157 154 152 150 151 153 153 162 166 163 161 158 158 151 150 159 162 172 197 205 203 191 208 119 120 78 106 144 145 144 123 126 120 115 112
174 172 171 173 170 167 165 163 164 162 160 157 159 162 163 164 172 180 176 178 175 175 172 172 172 173 198 189 192 172 163 103 6 69 89 134 155 150 136 107 108 119 110
190 184 182 181 176 176 176 172 170 171 168 169 170 172 174 179 181 189 198 204 200 212 193 196 188 182 207 246 221 321 352 10 2 4 29 51 84 71 53 78 98 80 23
197 190 187 182 180 180 181 181 179 179 181 182 182 183 186 188 201 217 216 224 236 248 253 264 265 274 192 289 195 192 200 322 324 334 351 351 342 346 347 335 327 322 294
198 188 183 181 182 182 183 181 183 184 188 190 189 195 199 199 207 231 248 243 248 253 261 262 268 269 274 279 215 237 303 311 318 323 325 331 330 332 333 331 320 315 303
210 181 177 178 183 183 181 179 182 186 194 201 203 208 205 207 208 215 256 260 245 258 256 262 268 270 278 280 286 288 292 302 310 314 317 322 321 322 324 324 324 321 313
250 193 179 176 177 176 179 182 186 194 199 208 218 217 217 215 214 215 230 253 246 246 253 253 263 264 274 281 286 288 292 297 302 306 313 319 319 320 321 319 320 320 317
242 208 200 189 182 183 186 190 196 198 207 213 224 232 222 217 221 222 225 237 246 252 259 257 256 269 275 277 285 291 293 296 296 302 307 310 312 315 319 321 321 319 318
257 219 211 208 199 193 194 193 218 219 242 226 230 230 232 223 220 221 227 234 241 252 254 259 256 258 267 277 282 289 297 296 306 304 302 305 308 311 313 315 316 316 318
255 231 224 223 216 210 206 213 211 225 229 229 231 228 229 229 227 227 231 235 242 249 260 263 264 265 270 269 281 284 290 302 305 308 310 311 316 315 315 316 316 315 316
263 248 234 229 224 222 214 223 232 238 240 260 239 231 227 229 233 233 233 235 236 247 260 263 264 264 268 271 273 284 286 292 298 299 303 307 313 316 316 316 317 315 316
258 250 241 231 224 229 230 237 241 247 258 265 251 241 234 230 235 238 237 234 239 249 256 261 261 263 266 271 273 276 282 293 293 297 301 303 306 314 317 318 318 316 317